Flag for Germany Weather past 2 weeks in Regensburg, Bavaria, Germany

Now
42 °F

Light rain. Overcast.


Feels Like: 35 °F
Forecast: 36 / 41 °F
Wind: 13 mph from Northwest

Location: Regensburg

Current Time: Mar 31, 2015 at 7:16:03 PM

Latest Report: Mar 31, 2015 at 6:00 PM


Visibility: 17 mi

Pressure: 29.67 "Hg

Humidity: 88%

Dew point: 39 °F

Location of RegensburgLocation

Historic Weather in Regensburg — Graph

°F

Regensburg temperature yesterday

Maximum temperature yesterday: 52 °F (at 2:00 PM)
Minimum temperature yesterday: 37 °F (at 11:00 PM)
Average temperature yesterday: 45 °F

Past Weeks' High & Low Weather Summary

 TemperatureHumidityPressure
High64 °F (Mar 25, 2:00 PM)100% (Mar 24, 7:00 AM)30.33 "Hg (Mar 24, 7:00 AM)
Low29 °F (Mar 21, 4:00 AM)26% (Mar 18, 4:00 PM)29.41 "Hg (Mar 31, 11:00 AM)
Average45 °F70%29.99 "Hg
* Reported Mar 16 5:00 PM — Mar 31 6:00 PM, Regensburg, Weather by CustomWeather, © 2015

Note: Actual official high and low records may vary slightly from our data, if they occured in-between our weather recording intervals... More about our weather records

Advertising

Regensburg weather history for previous 24 hours

 ConditionsComfort  
Time TempWeatherWind HumidityBarometerVisibility
6:00 PM
Tue, Mar 31
42 °FLight rain. Overcast.13 mph88%29.67 "Hg17 mi
5:00 PM53 °FPartly sunny.12 mph56%29.56 "Hg16 mi
4:00 PM54 °FOvercast.16 mph61%29.53 "Hg10 mi
3:00 PM53 °FPartly sunny.14 mph67%29.50 "Hg15 mi
2:00 PM53 °FDrizzle. Overcast.14 mph74%29.50 "Hg12 mi
1:00 PM55 °FPartly sunny.15 mph73%29.44 "Hg7 mi
12:00 PM54 °FLight rain. Overcast.17 mph73%29.44 "Hg14 mi
11:00 AM54 °FDrizzle. Overcast.13 mph77%29.41 "Hg12 mi
10:00 AM52 °FDrizzle. Overcast.10 mph84%29.44 "Hg13 mi
9:00 AM46 °FOvercast.3 mph95%29.47 "Hg14 mi
8:00 AM41 °FDrizzle. Low clouds.5 mph100%29.50 "Hg2 mi
7:00 AM39 °FDrizzle. Low clouds.6 mph100%29.58 "Hg2 mi
6:00 AM39 °FDrizzle. Overcast.5 mph97%29.63 "Hg16 mi
5:00 AM38 °FLight freezing rain. Overcast.6 mph90%29.70 "Hg18 mi
4:00 AM39 °FLight rain. Passing clouds.3 mph82%29.78 "Hg43 mi
3:00 AM39 °FOvercast.3 mph78%29.85 "Hg43 mi
2:00 AM38 °FOvercast.3 mph76%29.89 "Hg43 mi
1:00 AM36 °FOvercast.3 mph82%29.93 "Hg43 mi
12:00 AM36 °FPassing clouds.2 mph86%29.95 "Hg40 mi
11:00 PM
Mon, Mar 30
37 °FClear.3 mph82%29.94 "Hg34 mi
10:00 PM38 °FClear.5 mph74%29.91 "Hg43 mi
9:00 PM39 °FPassing clouds.7 mph78%29.90 "Hg43 mi
8:00 PM41 °FPassing clouds.10 mph72%29.84 "Hg34 mi
7:00 PM42 °FPartly sunny.6 mph81%29.81 "Hg28 mi
Weather by CustomWeather, © 2015

See weather overviewHow to use our weather pages